When you browse on this site, cookies collect data to enhance your experience and personalize the content and advertising you see.
Visit our Privacy Policy to learn more. By continuing to use the site, you agree to this use of cookies and data.
  • In Hungary
  • List of Countries
  • For 7 days
  • Water Temperature
  • Satellite Maps
  • Weather Map
  • News
  • Weather Widgets
  • user-avatar
    Login

    Hourly Weather Heidelberg

    Today, 22 April, Monday

    Time Temperature Precipitation Wind Pressure Humidity
    00:00 +14°C° 0 mm 2 mps 731 mmHg 57%
    01:00 +13°C° 0 mm 2 mps 731 mmHg 59%
    02:00 +12°C° 0 mm 2 mps 730 mmHg 61%
    03:00 +12°C° 0 mm 2 mps 730 mmHg 63%
    04:00 +10°C° 0 mm 2 mps 730 mmHg 65%
    05:00 +10°C° 0 mm 2 mps 729 mmHg 64%
    06:00 +12°C° 0 mm 2 mps 729 mmHg 64%
    07:00 +12°C° 0 mm 2 mps 729 mmHg 63%
    08:00 +13°C° 0 mm 3 mps 728 mmHg 58%
    09:00 +15°C° 0 mm 4 mps 728 mmHg 52%
    10:00 +18°C° 0 mm 4 mps 728 mmHg 47%
    11:00 +19°C° 0 mm 4 mps 727 mmHg 44%
    12:00 +21°C° 0 mm 5 mps 727 mmHg 40%
    13:00 +22°C° 0 mm 5 mps 726 mmHg 37%
    14:00 +22°C° 0 mm 5 mps 726 mmHg 37%
    15:00 +22°C° 0 mm 5 mps 725 mmHg 37%
    16:00 +23°C° 0 mm 5 mps 725 mmHg 36%
    17:00 +21°C° 0 mm 5 mps 724 mmHg 41%
    18:00 +20°C° 0 mm 5 mps 724 mmHg 46%
    19:00 +18°C° 0 mm 4 mps 723 mmHg 50%
    20:00 +16°C° 0 mm 5 mps 723 mmHg 52%
    21:00 +15°C° 0 mm 6 mps 723 mmHg 53%
    22:00 +14°C° 0 mm 6 mps 723 mmHg 55%
    23:00 +13°C° 0 mm 6 mps 723 mmHg 59%

    Tomorrow, 23 April, Tuesday

    Time Temperature Precipitation Wind Pressure Humidity
    00:00 +12°C° 0 mm 5 mps 722 mmHg 62%
    01:00 +10°C° 0 mm 5 mps 722 mmHg 66%
    02:00 +11°C° 0 mm 4 mps 722 mmHg 68%
    03:00 +10°C° 0 mm 4 mps 721 mmHg 70%
    04:00 +10°C° 0 mm 4 mps 721 mmHg 73%
    05:00 +10°C° 0 mm 4 mps 721 mmHg 73%
    06:00 +10°C° 0 mm 4 mps 721 mmHg 74%
    07:00 +11°C° 0 mm 4 mps 720 mmHg 75%
    08:00 +12°C° 0 mm 4 mps 720 mmHg 71%
    09:00 +14°C° 0 mm 4 mps 720 mmHg 66%
    10:00 +15°C° 0 mm 4 mps 720 mmHg 61%
    11:00 +18°C° 0 mm 3 mps 720 mmHg 57%
    12:00 +19°C° 0 mm 3 mps 720 mmHg 53%
    13:00 +21°C° 0 mm 3 mps 719 mmHg 49%
    14:00 +21°C° 0 mm 2 mps 719 mmHg 47%
    15:00 +23°C° 0 mm 2 mps 719 mmHg 45%
    16:00 +23°C° 0 mm 1 mps 719 mmHg 44%
    17:00 +22°C° 0 mm 1 mps 719 mmHg 48%
    18:00 +21°C° 0 mm 1 mps 719 mmHg 53%
    19:00 +19°C° 0 mm 1 mps 719 mmHg 58%
    20:00 +19°C° 0 mm 1 mps 719 mmHg 62%
    21:00 +18°C° 0 mm 1 mps 719 mmHg 67%
    22:00 +16°C° 0 mm 1 mps 720 mmHg 71%
    23:00 +16°C° 0 mm 1 mps 720 mmHg 74%

    Day after tomorrow, 24 April, Wednesday

    Time Temperature Precipitation Wind Pressure Humidity
    00:00 +15°C° 0 mm 1 mps 721 mmHg 77%
    01:00 +15°C° 0 mm 1 mps 721 mmHg 80%
    02:00 +14°C° 0 mm 1 mps 721 mmHg 82%
    03:00 +14°C° 0 mm 1 mps 722 mmHg 84%
    04:00 +14°C° 0 mm 1 mps 722 mmHg 85%
    05:00 +14°C° 0 mm 1 mps 723 mmHg 83%
    06:00 +15°C° 0 mm 1 mps 723 mmHg 82%
    07:00 +15°C° 0 mm 1 mps 724 mmHg 80%
    08:00 +18°C° 0 mm 1 mps 724 mmHg 72%
    09:00 +19°C° 0 mm 1 mps 724 mmHg 63%
    10:00 +21°C° 0 mm 1 mps 725 mmHg 55%
    11:00 +21°C° 0 mm 2 mps 725 mmHg 52%
    12:00 +22°C° 0 mm 3 mps 724 mmHg 49%
    13:00 +23°C° 0 mm 4 mps 724 mmHg 47%
    14:00 +23°C° 0.2 mm 4 mps 724 mmHg 49%
    15:00 +23°C° 0.2 mm 4 mps 724 mmHg 50%
    16:00 +23°C° 0.2 mm 4 mps 724 mmHg 52%
    17:00 +19°C° 0.7 mm 5 mps 724 mmHg 59%
    18:00 +15°C° 0.7 mm 7 mps 725 mmHg 66%
    19:00 +10°C° 0.7 mm 8 mps 726 mmHg 73%
    20:00 +10°C° 0.2 mm 6 mps 727 mmHg 73%
    21:00 +11°C° 0.2 mm 4 mps 728 mmHg 74%
    22:00 +12°C° 0.2 mm 2 mps 729 mmHg 75%
    23:00 +10°C° 0.3 mm 2 mps 729 mmHg 78%

    25 April, Thursday

    Time Temperature Precipitation Wind Pressure Humidity
    00:00 +9°C° 0.3 mm 2 mps 729 mmHg 80%
    01:00 +10°C° 0.3 mm 1 mps 729 mmHg 83%
    02:00 +9°C° 0 mm 1 mps 729 mmHg 83%
    03:00 +8°C° 0 mm 2 mps 729 mmHg 83%
    04:00 +8°C° 0 mm 2 mps 729 mmHg 83%
    05:00 +9°C° 0 mm 2 mps 729 mmHg 80%
    06:00 +9°C° 0 mm 2 mps 729 mmHg 78%
    07:00 +10°C° 0 mm 3 mps 728 mmHg 76%
    08:00 +12°C° 0 mm 3 mps 729 mmHg 67%
    09:00 +14°C° 0 mm 3 mps 729 mmHg 59%
    10:00 +17°C° 0 mm 3 mps 729 mmHg 51%
    11:00 +19°C° 0 mm 3 mps 729 mmHg 47%
    12:00 +20°C° 0 mm 2 mps 729 mmHg 44%
    13:00 +23°C° 0 mm 2 mps 729 mmHg 41%
    14:00 +23°C° 0 mm 2 mps 728 mmHg 41%
    15:00 +23°C° 0 mm 2 mps 728 mmHg 41%
    16:00 +23°C° 0 mm 2 mps 728 mmHg 41%
    17:00 +21°C° 0 mm 2 mps 728 mmHg 46%
    18:00 +19°C° 0 mm 2 mps 728 mmHg 50%
    19:00 +18°C° 0 mm 2 mps 728 mmHg 54%
    20:00 +17°C° 0 mm 2 mps 729 mmHg 56%
    21:00 +14°C° 0 mm 3 mps 729 mmHg 59%
    22:00 +13°C° 0 mm 3 mps 729 mmHg 61%
    23:00 +13°C° 0 mm 3 mps 729 mmHg 64%

    26 April, Friday

    Time Temperature Precipitation Wind Pressure Humidity
    00:00 +12°C° 0 mm 3 mps 730 mmHg 68%
    01:00 +11°C° 0 mm 3 mps 730 mmHg 71%
    02:00 +10°C° 0.2 mm 3 mps 730 mmHg 75%
    03:00 +10°C° 0.2 mm 3 mps 730 mmHg 79%
    04:00 +9°C° 0.2 mm 3 mps 730 mmHg 82%
    05:00 +9°C° 0.3 mm 3 mps 731 mmHg 83%
    06:00 +8°C° 0.3 mm 4 mps 731 mmHg 84%
    07:00 +7°C° 0.3 mm 4 mps 732 mmHg 85%
    08:00 +7°C° 0.9 mm 4 mps 732 mmHg 85%
    09:00 +7°C° 0.9 mm 4 mps 733 mmHg 85%
    10:00 +7°C° 0.9 mm 4 mps 734 mmHg 85%
    11:00 +8°C° 0.4 mm 4 mps 734 mmHg 80%
    12:00 +9°C° 0.4 mm 5 mps 735 mmHg 75%
    13:00 +10°C° 0.4 mm 5 mps 735 mmHg 70%
    14:00 +12°C° 0.2 mm 5 mps 735 mmHg 66%
    15:00 +13°C° 0.2 mm 4 mps 735 mmHg 63%
    16:00 +13°C° 0.2 mm 4 mps 735 mmHg 59%
    17:00 +13°C° 0.1 mm 4 mps 735 mmHg 63%
    18:00 +12°C° 0.1 mm 4 mps 735 mmHg 66%
    19:00 +11°C° 0.1 mm 4 mps 735 mmHg 69%
    20:00 +11°C° 0 mm 4 mps 736 mmHg 73%
    21:00 +10°C° 0 mm 4 mps 736 mmHg 76%
    22:00 +8°C° 0 mm 4 mps 737 mmHg 79%
    23:00 +8°C° 0 mm 4 mps 737 mmHg 80%

    27 April, Saturday

    Time Temperature Precipitation Wind Pressure Humidity
    00:00 +7°C° 0 mm 4 mps 737 mmHg 81%
    01:00 +7°C° 0 mm 4 mps 737 mmHg 83%
    02:00 +7°C° 0 mm 3 mps 737 mmHg 83%
    03:00 +7°C° 0 mm 3 mps 738 mmHg 84%
    04:00 +5°C° 0 mm 3 mps 738 mmHg 85%
    05:00 +7°C° 0 mm 3 mps 738 mmHg 82%
    06:00 +6°C° 0 mm 4 mps 738 mmHg 80%
    07:00 +7°C° 0 mm 4 mps 738 mmHg 78%
    08:00 +8°C° 0.1 mm 4 mps 738 mmHg 73%
    09:00 +9°C° 0.1 mm 5 mps 738 mmHg 68%
    10:00 +12°C° 0.1 mm 5 mps 738 mmHg 63%
    11:00 +12°C° 0.1 mm 5 mps 738 mmHg 64%
    12:00 +12°C° 0.1 mm 5 mps 737 mmHg 66%
    13:00 +12°C° 0.1 mm 5 mps 737 mmHg 67%
    14:00 +12°C° 0.3 mm 5 mps 737 mmHg 71%
    15:00 +10°C° 0.3 mm 5 mps 737 mmHg 74%
    16:00 +10°C° 0.3 mm 5 mps 737 mmHg 78%
    17:00 +10°C° 0.1 mm 5 mps 737 mmHg 78%
    18:00 +10°C° 0.1 mm 4 mps 737 mmHg 78%
    19:00 +10°C° 0.1 mm 4 mps 738 mmHg 78%
    20:00 +9°C° 0 mm 3 mps 738 mmHg 80%
    21:00 +8°C° 0 mm 3 mps 738 mmHg 82%
    22:00 +7°C° 0 mm 2 mps 739 mmHg 84%
    23:00 +7°C° 0 mm 2 mps 739 mmHg 85%
    Show more